EW2706 Weather Reports


time (UTC)temp
C
wind
direction
speed
KPH
gust
KPH
rain 1hr
cm
rain 24hr
cm
rain mn
cm
humidity
%
barometer
mb
20260906173619 24 94 3.2 25.7 0.00 0.00 0.00 79 1016.8
20260906172618 24 106 1.6 9.7 0.00 0.00 0.00 80 1017.2
20260906171617 24 198 3.2 9.7 0.00 0.00 0.00 81 1017.2
20260906170616 24 147 3.2 14.5 0.00 0.00 0.00 81 1017.2
20260906165513 23 202 6.4 14.5 0.00 0.00 0.00 81 1017.5
20260906164512 23 221 4.8 9.7 0.00 0.00 0.00 81 1017.5
20260906163511 23 187 8.0 14.5 0.00 0.00 0.00 82 1017.5
20260906162439 23 196 6.4 17.7 0.00 0.00 0.00 82 1017.8
20260906161438 23 185 4.8 14.5 0.00 0.00 0.00 83 1017.8
20260906160437 23 158 3.2 12.9 0.00 0.00 0.00 84 1017.8
20260906155436 23 202 3.2 8.0 0.00 0.00 0.00 83 1017.8
20260906154436 22 189 3.2 19.3 0.00 0.00 0.00 83 1017.8
20260906153435 23 188 1.6 12.9 0.00 0.00 0.00 83 1017.8
20260906152434 23 188 3.2 14.5 0.00 0.00 0.00 84 1017.8
20260906151433 23 155 8.0 12.9 0.00 0.00 0.00 83 1017.8
20260906150433 23 178 8.0 12.9 0.00 0.00 0.00 83 1017.9
20260906145431 23 112 3.2 22.5 0.00 0.00 0.00 83 1017.5
20260906144431 23 211 4.8 14.5 0.00 0.00 0.00 82 1017.6
20260906143430 23 206 6.4 12.9 0.00 0.00 0.00 82 1017.6
20260906142429 23 194 6.4 17.7 0.00 0.00 0.00 82 1017.6
20260906141428 23 85 1.6 9.7 0.00 0.00 0.00 82 1017.6
20260906140427 23 227 1.6 8.0 0.00 0.00 0.00 84 1017.5
20260906135426 23 190 3.2 9.7 0.00 0.00 0.00 85 1017.5
20260906134425 22 193 6.4 12.9 0.00 0.00 0.00 85 1017.5
20260906133425 22 171 0.0 9.7 0.00 0.00 0.00 86 1017.2
20260906132424 22 79 1.6 4.8 0.00 0.00 0.00 87 1017.2
20260906131423 22 74 0.0 8.0 0.00 0.00 0.00 88 1017.2
20260906130422 21 101 0.0 8.0 0.00 0.00 0.00 89 1017.1
20260906125350 21 102 0.0 4.8 0.00 0.00 0.00 91 1016.8
20260906124349 20 103 1.6 8.0 0.00 0.00 0.00 91 1017.1
20260906123348 20 105 0.0 8.0 0.00 0.00 0.00 92 1017.1
20260906122316 20 105 0.0 3.2 0.00 0.00 0.00 93 1016.8
20260906121315 20 105 0.0 3.2 0.00 0.00 0.00 93 1017.2
20260906120314 20 105 0.0 3.2 0.00 0.00 0.00 93 1017.2
20260906115314 20 105 0.0 3.2 0.00 0.00 0.00 93 1016.8
20260906114313 20 105 0.0 3.2 0.00 0.00 0.00 93 1016.9
20260906113312 20 103 0.0 3.2 0.00 0.00 0.00 93 1016.9
20260906112311 20 103 0.0 3.2 0.00 0.00 0.00 92 1017.0
20260906111310 20 103 0.0 0.0 0.00 0.00 0.00 92 1017.0
20260906110207 20 103 0.0 3.2 0.00 0.00 0.00 92 1017.0
20260906105206 20 103 0.0 3.2 0.00 0.00 0.00 93 1016.7
20260906104205 20 103 0.0 3.2 0.00 0.00 0.00 93 1016.6
20260906103133 20 103 0.0 3.2 0.00 0.00 0.00 93 1016.6
20260906102101 20 103 0.0 0.0 0.00 0.00 0.00 92 1016.6
20260906101100 20 103 0.0 0.0 0.00 0.00 0.00 91 1016.6
20260906100059 20 103 0.0 0.0 0.00 0.00 0.00 91 1016.6
20260906095058 20 103 0.0 0.0 0.00 0.00 0.00 90 1016.6
20260906094057 20 103 0.0 0.0 0.00 0.00 0.00 89 1016.3
20260906093025 21 103 0.0 3.2 0.00 0.00 0.00 89 1016.3
20260906092024 21 103 0.0 0.0 0.00 0.00 0.00 88 1016.3
20260906090952 21 103 0.0 3.2 0.00 0.00 0.00 88 1016.0
20260906085951 21 103 0.0 4.8 0.00 0.00 0.00 87 1016.3
20260906084951 21 103 0.0 4.8 0.00 0.00 0.00 87 1016.3
20260906083950 21 97 1.6 8.0 0.00 0.00 0.00 87 1016.0
20260906082948 21 109 0.0 4.8 0.00 0.00 0.00 86 1016.0
20260906081948 22 109 0.0 3.2 0.00 0.00 0.00 86 1015.6
20260906080916 22 109 1.6 4.8 0.00 0.00 0.00 86 1015.6
20260906075915 22 109 1.6 4.8 0.00 0.00 0.00 86 1015.6
20260906074914 22 109 0.0 4.8 0.00 0.00 0.00 86 1015.6
20260906073913 22 109 0.0 9.7 0.00 0.00 0.00 85 1015.6
20260906072912 22 109 0.0 4.8 0.00 0.00 0.00 85 1015.9
20260906071911 22 109 1.6 8.0 0.00 0.00 0.00 85 1015.6
20260906070911 22 109 0.0 4.8 0.00 0.00 0.00 85 1015.9
20260906065910 22 108 0.0 8.0 0.00 0.00 0.00 85 1015.9
20260906064909 22 108 0.0 3.2 0.00 0.00 0.00 86 1016.2
20260906063908 22 108 0.0 8.0 0.00 0.00 0.00 86 1016.3
20260906062907 22 108 1.6 8.0 0.00 0.00 0.00 86 1016.2
20260906061907 22 126 0.0 3.2 0.00 0.00 0.00 86 1016.2
20260906060835 22 130 0.0 3.2 0.00 0.00 0.00 86 1016.2
20260906055803 22 130 0.0 3.2 0.00 0.00 0.00 86 1016.2
20260906054802 22 134 1.6 9.7 0.00 0.00 0.00 87 1016.1
20260906053801 22 185 0.0 0.0 0.00 0.00 0.00 86 1016.1
20260906052800 22 185 0.0 3.2 0.00 0.00 0.00 85 1016.1
20260906051759 22 185 0.0 3.2 0.00 0.00 0.00 84 1016.1
20260906050758 23 185 0.0 8.0 0.00 0.00 0.00 84 1016.1
20260906045756 23 188 1.6 4.8 0.00 0.00 0.00 84 1016.1
20260906044756 23 188 1.6 4.8 0.00 0.00 0.00 84 1016.4
20260906043755 23 189 1.6 4.8 0.00 0.00 0.00 84 1016.4
20260906042753 23 189 0.0 4.8 0.00 0.00 0.00 83 1016.4
20260906041752 23 189 1.6 4.8 0.00 0.00 0.00 83 1016.4
20260906040751 23 189 0.0 3.2 0.00 0.00 0.00 83 1016.4
20260906035749 23 189 1.6 8.0 0.00 0.00 0.00 83 1016.4
20260906034749 23 189 1.6 3.2 0.00 0.00 0.00 83 1016.4
20260906033645 23 189 0.0 3.2 0.00 0.00 0.00 83 1016.4
20260906032645 23 189 0.0 3.2 0.00 0.00 0.00 83 1016.3
20260906031613 23 189 0.0 0.0 0.00 0.00 0.00 82 1016.3
20260906030541 23 189 0.0 3.2 0.00 0.00 0.00 82 1016.3
20260906025540 23 189 0.0 3.2 0.00 0.00 0.00 82 1016.4
20260906024540 23 189 0.0 0.0 0.00 0.00 0.00 81 1016.4
20260906023539 23 189 0.0 3.2 0.00 0.00 0.00 81 1016.4
20260906022538 24 189 0.0 3.2 0.00 0.00 0.00 81 1016.4
20260906021537 24 189 0.0 3.2 0.00 0.00 0.00 81 1016.0
20260906020505 24 189 0.0 8.0 0.00 0.00 0.00 81 1016.0
20260906015504 24 189 0.0 9.7 0.00 0.00 0.00 81 1015.4
20260906014503 24 189 1.6 4.8 0.00 0.00 0.00 80 1015.0
20260906013502 25 186 0.0 9.7 0.00 0.00 0.00 79 1015.0
20260906012501 25 186 3.2 8.0 0.00 0.00 0.00 78 1014.7
20260906011500 25 186 1.6 8.0 0.00 0.00 0.00 78 1014.4
20260906010459 25 186 1.6 4.8 0.00 0.00 0.00 76 1014.4
20260906005459 25 186 0.0 8.0 0.00 0.00 0.00 75 1014.4
20260906004458 26 186 3.2 4.8 0.00 0.00 0.00 74 1014.1
20260906003457 26 186 0.0 8.0 0.00 0.00 0.00 72 1014.1
20260906002456 27 186 3.2 8.0 0.00 0.00 0.00 71 1014.1
20260906001455 27 196 4.8 14.5 0.00 0.00 0.00 69 1014.1
20260906000455 27 178 1.6 8.0 0.00 0.00 0.00 68 1014.2
20260905235422 27 178 0.0 3.2 0.00 0.00 0.00 66 1014.2
20260905234421 28 178 0.0 9.7 0.00 0.00 0.00 65 1013.8
20260905233420 28 286 3.2 8.0 0.00 0.00 0.00 64 1014.2
20260905232419 29 119 1.6 9.7 0.00 0.00 0.00 62 1013.9
20260905231419 30 70 1.6 12.9 0.00 0.00 0.00 62 1014.0
20260905230418 30 157 6.4 12.9 0.00 0.00 0.00 63 1014.0
20260905225417 30 180 0.0 9.7 0.00 0.00 0.00 62 1013.6
20260905224416 30 76 3.2 9.7 0.00 0.00 0.00 59 1013.6
20260905223415 30 83 6.4 17.7 0.00 0.00 0.00 60 1013.3
20260905222415 30 86 8.0 22.5 0.00 0.00 0.00 60 1013.3
20260905221414 30 79 6.4 19.3 0.00 0.00 0.00 62 1013.3
20260905220239 30 73 6.4 22.5 0.00 0.00 0.00 61 1013.3
20260905215238 30 80 8.0 19.3 0.00 0.00 0.00 61 1013.3
20260905214237 30 93 4.8 25.7 0.00 0.00 0.00 64 1013.6
20260905213236 30 74 3.2 17.7 0.00 0.00 0.00 62 1014.0
20260905212235 29 52 3.2 19.3 0.00 0.00 0.00 63 1013.9
20260905211235 29 75 6.4 19.3 0.00 0.00 0.00 64 1013.9
20260905210203 28 9 3.2 19.3 0.00 0.00 0.00 65 1014.3
20260905205202 28 62 4.8 22.5 0.00 0.00 0.00 66 1014.2
20260905204201 28 49 3.2 22.5 0.00 0.00 0.00 68 1014.3
20260905203200 28 41 4.8 17.7 0.00 0.00 0.00 69 1014.2
20260905202159 27 58 6.4 25.7 0.00 0.00 0.00 71 1014.2
20260905201158 27 40 4.8 22.5 0.00 0.00 0.00 72 1014.5
20260905200158 27 65 8.0 19.3 0.00 0.00 0.00 75 1014.5
20260905195055 27 358 4.8 9.7 0.00 0.00 0.00 75 1014.8
20260905194023 27 68 4.8 17.7 0.00 0.00 0.00 76 1015.1
20260905193022 26 56 3.2 19.3 0.00 0.00 0.00 78 1014.8
20260905192021 26 83 8.0 19.3 0.00 0.00 0.00 77 1015.1
20260905191020 26 82 6.4 17.7 0.00 0.00 0.00 78 1015.1
20260905190019 26 93 4.8 9.7 0.00 0.00 0.00 79 1015.4
20260905185019 25 134 3.2 8.0 0.00 0.00 0.00 79 1015.7
20260905184018 26 109 1.6 9.7 0.00 0.00 0.00 78 1015.8
20260905183017 25 186 0.0 8.0 0.00 0.00 0.00 80 1015.8
20260905182016 25 191 3.2 12.9 0.00 0.00 0.00 80 1015.7
20260905181015 25 191 4.8 9.7 0.00 0.00 0.00 81 1016.1
20260905180015 25 190 4.8 14.5 0.00 0.00 0.00 81 1016.0
20260905175014 24 94 1.6 14.5 0.00 0.00 0.00 83 1016.0
20260905174013 23 148 1.6 4.8 0.00 0.00 0.00 85 1016.3